| time (UTC) | temp F | wind direction | speed knots | gust knots | rain 1hr in | rain 24hr in | rain mn in | humidity % | barometer mb |
| 20260510164504 | 42 | 14 | 2.6 | 6.1 | 0.00 | 0.00 | 0.00 | 95 | 1032.9 |
| 20260510164002 | 42 | 6 | 2.6 | 6.1 | 0.00 | 0.00 | 0.00 | 94 | 1033.0 |
| 20260510163503 | 41 | 14 | 3.5 | 5.2 | 0.00 | 0.00 | 0.00 | 94 | 1032.9 |
| 20260510163004 | 41 | 14 | 3.5 | 7.8 | 0.00 | 0.00 | 0.00 | 94 | 1033.0 |
| 20260510162502 | 41 | 27 | 3.5 | 7.8 | 0.00 | 0.00 | 0.00 | 95 | 1033.0 |
| 20260510162015 | 41 | 1 | 4.3 | 7.8 | 0.00 | 0.00 | 0.00 | 95 | 1033.0 |
| 20260510161512 | 40 | 11 | 3.5 | 5.2 | 0.00 | 0.00 | 0.00 | 94 | 1033.1 |
| 20260510161005 | 40 | 13 | 2.6 | 5.2 | 0.00 | 0.00 | 0.00 | 94 | 1033.2 |
| 20260510160507 | 40 | 15 | 2.6 | 5.2 | 0.00 | 0.00 | 0.00 | 94 | 1033.2 |
| 20260510160015 | 40 | 29 | 2.6 | 4.3 | 0.00 | 0.00 | 0.00 | 94 | 1033.2 |
| 20260510155507 | 40 | 12 | 1.7 | 4.3 | 0.00 | 0.00 | 0.00 | 94 | 1033.3 |
| 20260510155010 | 41 | 22 | 2.6 | 4.3 | 0.00 | 0.00 | 0.00 | 94 | 1033.2 |
| 20260510154532 | 41 | 19 | 1.7 | 4.3 | 0.00 | 0.00 | 0.00 | 94 | 1033.3 |
| 20260510154002 | 41 | 22 | 1.7 | 5.2 | 0.00 | 0.00 | 0.00 | 94 | 1033.3 |
| 20260510153502 | 41 | 32 | 2.6 | 5.2 | 0.00 | 0.00 | 0.00 | 94 | 1033.3 |
| 20260510153003 | 42 | 19 | 3.5 | 6.1 | 0.00 | 0.00 | 0.00 | 94 | 1033.3 |
| 20260510152505 | 42 | 31 | 3.5 | 6.1 | 0.00 | 0.00 | 0.00 | 94 | 1033.2 |
| 20260510152004 | 42 | 39 | 4.3 | 7.0 | 0.00 | 0.00 | 0.00 | 94 | 1033.3 |
| 20260510151507 | 42 | 24 | 3.5 | 7.0 | 0.00 | 0.00 | 0.00 | 94 | 1033.4 |
| 20260510151015 | 42 | 25 | 2.6 | 6.1 | 0.00 | 0.00 | 0.00 | 94 | 1033.4 |
| 20260510150506 | 42 | 14 | 3.5 | 6.1 | 0.00 | 0.00 | 0.00 | 94 | 1033.4 |
| 20260510150015 | 42 | 28 | 3.5 | 5.2 | 0.00 | 0.00 | 0.00 | 94 | 1033.4 |
| 20260510145511 | 42 | 26 | 2.6 | 5.2 | 0.00 | 0.00 | 0.00 | 94 | 1033.4 |
| 20260510145007 | 42 | 29 | 2.6 | 4.3 | 0.00 | 0.00 | 0.00 | 93 | 1033.4 |
| 20260510144523 | 42 | 21 | 0.9 | 3.5 | 0.00 | 0.00 | 0.00 | 93 | 1033.4 |
| 20260510144011 | 42 | 25 | 0.0 | 3.5 | 0.00 | 0.00 | 0.00 | 93 | 1033.4 |
| 20260510143512 | 42 | 14 | 2.6 | 4.3 | 0.00 | 0.00 | 0.00 | 93 | 1033.4 |
| 20260510143006 | 42 | 10 | 0.9 | 4.3 | 0.00 | 0.00 | 0.00 | 93 | 1033.4 |
| 20260510142503 | 43 | 30 | 2.6 | 4.3 | 0.00 | 0.00 | 0.00 | 93 | 1033.4 |
| 20260510142003 | 43 | 16 | 1.7 | 4.3 | 0.00 | 0.00 | 0.00 | 93 | 1033.4 |
| 20260510141509 | 43 | 20 | 1.7 | 4.3 | 0.00 | 0.00 | 0.00 | 93 | 1033.5 |
| 20260510141012 | 43 | 10 | 0.0 | 7.0 | 0.00 | 0.00 | 0.00 | 93 | 1033.5 |
| 20260510140506 | 43 | 19 | 0.9 | 7.0 | 0.00 | 0.00 | 0.00 | 93 | 1033.5 |
| 20260510140008 | 43 | 352 | 0.0 | 5.2 | 0.00 | 0.00 | 0.00 | 93 | 1033.5 |
| 20260510135504 | 43 | 17 | 1.7 | 7.0 | 0.00 | 0.00 | 0.00 | 93 | 1033.5 |
| 20260510135004 | 43 | 39 | 1.7 | 7.0 | 0.00 | 0.00 | 0.00 | 93 | 1033.5 |
| 20260510134513 | 43 | 49 | 3.5 | 7.0 | 0.00 | 0.00 | 0.00 | 93 | 1033.5 |
| 20260510134005 | 44 | 54 | 3.5 | 8.7 | 0.00 | 0.00 | 0.00 | 93 | 1033.6 |
| 20260510133506 | 44 | 27 | 3.5 | 8.7 | 0.00 | 0.00 | 0.00 | 93 | 1033.5 |
| 20260510133022 | 44 | 39 | 4.3 | 6.1 | 0.00 | 0.00 | 0.00 | 93 | 1033.5 |
| 20260510132511 | 44 | 4 | 2.6 | 6.1 | 0.00 | 0.00 | 0.00 | 93 | 1033.5 |
| 20260510132009 | 44 | 30 | 3.5 | 6.1 | 0.00 | 0.00 | 0.00 | 93 | 1033.4 |
| 20260510131523 | 43 | 51 | 1.7 | 7.8 | 0.00 | 0.00 | 0.00 | 93 | 1033.4 |
| 20260510131002 | 43 | 32 | 3.5 | 7.8 | 0.00 | 0.00 | 0.00 | 93 | 1033.5 |
| 20260510130502 | 44 | 35 | 4.3 | 7.8 | 0.00 | 0.00 | 0.00 | 93 | 1033.5 |
| 20260510130007 | 44 | 44 | 3.5 | 7.0 | 0.00 | 0.00 | 0.00 | 92 | 1033.5 |
| 20260510125505 | 44 | 54 | 4.3 | 7.8 | 0.00 | 0.00 | 0.00 | 92 | 1033.5 |
| 20260510125003 | 44 | 37 | 5.2 | 7.8 | 0.00 | 0.00 | 0.00 | 92 | 1033.6 |
| 20260510124508 | 44 | 46 | 3.5 | 6.1 | 0.00 | 0.00 | 0.00 | 92 | 1033.6 |
| 20260510124006 | 44 | 18 | 2.6 | 6.1 | 0.00 | 0.00 | 0.00 | 92 | 1033.6 |
| 20260510123507 | 44 | 47 | 4.3 | 6.1 | 0.00 | 0.00 | 0.00 | 92 | 1033.6 |
| 20260510123015 | 44 | 53 | 2.6 | 7.8 | 0.00 | 0.00 | 0.00 | 91 | 1033.7 |
| 20260510122511 | 44 | 36 | 4.3 | 7.8 | 0.00 | 0.00 | 0.00 | 91 | 1033.7 |
| 20260510122010 | 44 | 54 | 4.3 | 7.0 | 0.00 | 0.00 | 0.00 | 91 | 1033.7 |
| 20260510121522 | 44 | 65 | 3.5 | 7.0 | 0.00 | 0.00 | 0.00 | 91 | 1033.8 |
| 20260510121010 | 44 | 36 | 5.2 | 7.0 | 0.00 | 0.00 | 0.00 | 91 | 1033.7 |
| 20260510120508 | 44 | 35 | 2.6 | 6.1 | 0.00 | 0.00 | 0.00 | 91 | 1033.8 |
| 20260510120022 | 44 | 36 | 3.5 | 7.0 | 0.00 | 0.00 | 0.00 | 91 | 1033.7 |
| 20260510115502 | 44 | 39 | 3.5 | 7.0 | 0.00 | 0.00 | 0.00 | 91 | 1033.6 |
| 20260510115005 | 44 | 37 | 3.5 | 5.2 | 0.00 | 0.00 | 0.00 | 91 | 1033.6 |
| 20260510114528 | 44 | 52 | 2.6 | 5.2 | 0.00 | 0.00 | 0.00 | 91 | 1033.6 |
| 20260510114004 | 44 | 63 | 2.6 | 6.1 | 0.00 | 0.00 | 0.00 | 90 | 1033.6 |
| 20260510113506 | 44 | 39 | 2.6 | 7.0 | 0.00 | 0.00 | 0.00 | 90 | 1033.5 |
| 20260510113010 | 44 | 44 | 3.5 | 7.0 | 0.00 | 0.00 | 0.00 | 90 | 1033.4 |
| 20260510112510 | 44 | 49 | 3.5 | 7.0 | 0.00 | 0.00 | 0.00 | 90 | 1033.4 |
| 20260510112009 | 44 | 60 | 4.3 | 7.0 | 0.00 | 0.00 | 0.00 | 90 | 1033.4 |
| 20260510111518 | 44 | 57 | 3.5 | 7.0 | 0.00 | 0.00 | 0.00 | 89 | 1033.2 |
| 20260510111012 | 44 | 61 | 3.5 | 7.0 | 0.00 | 0.00 | 0.00 | 89 | 1033.3 |
| 20260510110509 | 44 | 66 | 2.6 | 7.0 | 0.00 | 0.00 | 0.00 | 89 | 1033.2 |
| 20260510110031 | 44 | 61 | 2.6 | 7.0 | 0.00 | 0.00 | 0.00 | 89 | 1033.2 |
| 20260510105509 | 44 | 54 | 2.6 | 6.1 | 0.00 | 0.00 | 0.00 | 89 | 1033.2 |
| 20260510105011 | 44 | 74 | 1.7 | 5.2 | 0.00 | 0.00 | 0.00 | 88 | 1033.1 |
| 20260510104524 | 44 | 92 | 2.6 | 5.2 | 0.00 | 0.00 | 0.00 | 88 | 1033.2 |
| 20260510104009 | 44 | 80 | 2.6 | 7.0 | 0.00 | 0.00 | 0.00 | 88 | 1033.2 |
| 20260510103510 | 44 | 53 | 3.5 | 7.0 | 0.00 | 0.00 | 0.00 | 88 | 1033.2 |
| 20260510103008 | 44 | 80 | 3.5 | 7.0 | 0.00 | 0.00 | 0.00 | 88 | 1033.1 |
| 20260510102507 | 44 | 80 | 4.3 | 7.0 | 0.00 | 0.00 | 0.00 | 88 | 1033.1 |
| 20260510102007 | 44 | 83 | 1.7 | 7.0 | 0.00 | 0.00 | 0.00 | 87 | 1033.0 |
| 20260510101514 | 44 | 109 | 0.9 | 3.5 | 0.00 | 0.00 | 0.00 | 86 | 1032.9 |
| 20260510101006 | 44 | 101 | 0.0 | 0.0 | 0.00 | 0.00 | 0.00 | 86 | 1032.9 |
| 20260510100513 | 44 | 108 | 0.0 | 0.0 | 0.00 | 0.00 | 0.00 | 86 | 1032.8 |
| 20260510100018 | 44 | 106 | 0.0 | 1.7 | 0.00 | 0.00 | 0.00 | 85 | 1032.7 |
| 20260510095507 | 44 | 106 | 0.0 | 1.7 | 0.00 | 0.00 | 0.00 | 85 | 1032.7 |
| 20260510095013 | 44 | 113 | 0.0 | 0.0 | 0.00 | 0.00 | 0.00 | 84 | 1032.6 |
| 20260510094524 | 45 | 102 | 0.0 | 0.0 | 0.00 | 0.00 | 0.00 | 84 | 1032.7 |
| 20260510094009 | 45 | 124 | 0.0 | 0.9 | 0.00 | 0.00 | 0.00 | 84 | 1032.7 |
| 20260510093509 | 45 | 124 | 0.0 | 2.6 | 0.00 | 0.00 | 0.00 | 83 | 1032.6 |
| 20260510093043 | 45 | 124 | 0.0 | 3.5 | 0.00 | 0.00 | 0.00 | 83 | 1032.6 |
| 20260510092509 | 45 | 131 | 0.9 | 5.2 | 0.00 | 0.00 | 0.00 | 83 | 1032.6 |
| 20260510092006 | 46 | 93 | 1.7 | 5.2 | 0.00 | 0.00 | 0.00 | 82 | 1032.5 |
| 20260510091509 | 46 | 88 | 0.9 | 6.1 | 0.00 | 0.00 | 0.00 | 81 | 1032.3 |
| 20260510091006 | 46 | 104 | 3.5 | 7.8 | 0.00 | 0.00 | 0.00 | 80 | 1032.2 |
| 20260510090507 | 46 | 113 | 2.6 | 7.8 | 0.00 | 0.00 | 0.00 | 79 | 1032.2 |
| 20260510090028 | 47 | 120 | 3.5 | 7.0 | 0.00 | 0.00 | 0.00 | 78 | 1032.1 |
| 20260510085506 | 47 | 109 | 1.7 | 8.7 | 0.00 | 0.00 | 0.00 | 78 | 1032.0 |
| 20260510085010 | 48 | 125 | 3.5 | 8.7 | 0.00 | 0.00 | 0.00 | 77 | 1031.9 |
| 20260510084529 | 48 | 106 | 3.5 | 7.8 | 0.00 | 0.00 | 0.00 | 77 | 1031.9 |
| 20260510084010 | 48 | 138 | 3.5 | 7.0 | 0.00 | 0.00 | 0.00 | 74 | 1031.9 |
| 20260510083511 | 49 | 86 | 3.5 | 7.0 | 0.00 | 0.00 | 0.00 | 73 | 1031.7 |
| 20260510083024 | 49 | 106 | 2.6 | 7.0 | 0.00 | 0.00 | 0.00 | 73 | 1031.6 |
| 20260510082508 | 49 | 125 | 1.7 | 6.1 | 0.00 | 0.00 | 0.00 | 72 | 1031.5 |
| 20260510082010 | 49 | 153 | 1.7 | 6.1 | 0.00 | 0.00 | 0.00 | 72 | 1031.5 |
| 20260510081527 | 49 | 147 | 1.7 | 4.3 | 0.00 | 0.00 | 0.00 | 73 | 1031.4 |
| 20260510081010 | 49 | 126 | 1.7 | 4.3 | 0.00 | 0.00 | 0.00 | 72 | 1031.3 |
| 20260510080510 | 49 | 122 | 2.6 | 6.1 | 0.00 | 0.00 | 0.00 | 72 | 1031.3 |
| 20260510080013 | 49 | 116 | 1.7 | 6.1 | 0.00 | 0.00 | 0.00 | 71 | 1031.3 |
| 20260510075507 | 49 | 133 | 1.7 | 6.1 | 0.00 | 0.00 | 0.00 | 71 | 1031.3 |
| 20260510075012 | 50 | 166 | 2.6 | 7.0 | 0.00 | 0.00 | 0.00 | 71 | 1031.3 |
| 20260510074504 | 50 | 127 | 2.6 | 7.0 | 0.00 | 0.00 | 0.00 | 70 | 1031.2 |
| 20260510074003 | 50 | 129 | 2.6 | 6.1 | 0.00 | 0.00 | 0.00 | 70 | 1031.1 |
| 20260510073503 | 50 | 145 | 1.7 | 6.1 | 0.00 | 0.00 | 0.00 | 70 | 1031.1 |
| 20260510073004 | 50 | 118 | 2.6 | 6.1 | 0.00 | 0.00 | 0.00 | 69 | 1031.0 |
| 20260510072503 | 50 | 135 | 1.7 | 4.3 | 0.00 | 0.00 | 0.00 | 68 | 1030.9 |
| 20260510072004 | 51 | 133 | 1.7 | 4.3 | 0.00 | 0.00 | 0.00 | 67 | 1031.0 |
| 20260510071505 | 51 | 137 | 1.7 | 4.3 | 0.00 | 0.00 | 0.00 | 67 | 1030.9 |
| 20260510071004 | 51 | 141 | 2.6 | 5.2 | 0.00 | 0.00 | 0.00 | 66 | 1030.9 |
| 20260510070503 | 51 | 149 | 2.6 | 5.2 | 0.00 | 0.00 | 0.00 | 65 | 1030.9 |
| 20260510070004 | 52 | 139 | 2.6 | 5.2 | 0.00 | 0.00 | 0.00 | 65 | 1030.9 |
| 20260510065503 | 52 | 137 | 1.7 | 5.2 | 0.00 | 0.00 | 0.00 | 66 | 1030.9 |
| 20260510065004 | 52 | 149 | 2.6 | 5.2 | 0.00 | 0.00 | 0.00 | 67 | 1030.9 |
| 20260510064504 | 52 | 151 | 2.6 | 4.3 | 0.00 | 0.00 | 0.00 | 67 | 1030.8 |
| 20260510064003 | 52 | 142 | 2.6 | 5.2 | 0.00 | 0.00 | 0.00 | 67 | 1030.7 |
| 20260510063505 | 53 | 143 | 2.6 | 5.2 | 0.00 | 0.00 | 0.00 | 66 | 1030.6 |
| 20260510063006 | 53 | 134 | 1.7 | 6.1 | 0.00 | 0.00 | 0.00 | 65 | 1030.6 |
| 20260510062503 | 53 | 146 | 1.7 | 6.1 | 0.00 | 0.00 | 0.00 | 64 | 1030.5 |
| 20260510062003 | 53 | 106 | 0.9 | 6.1 | 0.00 | 0.00 | 0.00 | 64 | 1030.4 |
| 20260510061507 | 53 | 128 | 1.7 | 5.2 | 0.00 | 0.00 | 0.00 | 63 | 1030.4 |
| 20260510061004 | 53 | 140 | 2.6 | 7.0 | 0.00 | 0.00 | 0.00 | 61 | 1030.4 |
| 20260510060505 | 53 | 101 | 2.6 | 7.0 | 0.00 | 0.00 | 0.00 | 62 | 1030.4 |
| 20260510060009 | 53 | 106 | 1.7 | 7.0 | 0.00 | 0.00 | 0.00 | 63 | 1030.4 |
| 20260510055502 | 53 | 180 | 2.6 | 7.0 | 0.00 | 0.00 | 0.00 | 62 | 1030.3 |
| 20260510055002 | 53 | 120 | 2.6 | 7.0 | 0.00 | 0.00 | 0.00 | 61 | 1030.3 |
| 20260510054508 | 53 | 121 | 2.6 | 7.8 | 0.00 | 0.00 | 0.00 | 60 | 1030.3 |
| 20260510054005 | 54 | 104 | 2.6 | 7.8 | 0.00 | 0.00 | 0.00 | 59 | 1030.3 |
| 20260510053503 | 54 | 87 | 5.2 | 7.8 | 0.00 | 0.00 | 0.00 | 59 | 1030.3 |
| 20260510053008 | 54 | 130 | 2.6 | 8.7 | 0.00 | 0.00 | 0.00 | 60 | 1030.3 |
| 20260510052507 | 54 | 71 | 4.3 | 8.7 | 0.00 | 0.00 | 0.00 | 60 | 1030.2 |
| 20260510052004 | 54 | 114 | 3.5 | 8.7 | 0.00 | 0.00 | 0.00 | 62 | 1030.2 |
| 20260510051507 | 55 | 112 | 4.3 | 8.7 | 0.00 | 0.00 | 0.00 | 63 | 1030.2 |
| 20260510051004 | 55 | 91 | 3.5 | 8.7 | 0.00 | 0.00 | 0.00 | 66 | 1030.1 |
| 20260510050503 | 55 | 106 | 3.5 | 8.7 | 0.00 | 0.00 | 0.00 | 68 | 1030.1 |
| 20260510050006 | 55 | 112 | 3.5 | 8.7 | 0.00 | 0.00 | 0.00 | 68 | 1030.1 |
| 20260510045505 | 55 | 74 | 3.5 | 7.8 | 0.00 | 0.00 | 0.00 | 67 | 1030.1 |
| 20260510045006 | 56 | 77 | 3.5 | 7.8 | 0.00 | 0.00 | 0.00 | 67 | 1030.0 |
| 20260510044511 | 56 | 120 | 4.3 | 7.8 | 0.00 | 0.00 | 0.00 | 68 | 1030.0 |
| 20260510044005 | 56 | 127 | 1.7 | 7.8 | 0.00 | 0.00 | 0.00 | 67 | 1029.9 |
| 20260510043503 | 56 | 126 | 2.6 | 7.8 | 0.00 | 0.00 | 0.00 | 68 | 1029.8 |
| 20260510043014 | 56 | 101 | 2.6 | 8.7 | 0.00 | 0.00 | 0.00 | 67 | 1029.8 |
| 20260510042503 | 56 | 94 | 3.5 | 8.7 | 0.00 | 0.00 | 0.00 | 66 | 1029.8 |
| 20260510042004 | 56 | 92 | 2.6 | 7.8 | 0.00 | 0.00 | 0.00 | 68 | 1029.7 |
| 20260510041507 | 56 | 93 | 3.5 | 7.8 | 0.00 | 0.00 | 0.00 | 66 | 1029.7 |
| 20260510041008 | 56 | 112 | 3.5 | 7.8 | 0.00 | 0.00 | 0.00 | 67 | 1029.7 |
| 20260510040505 | 56 | 98 | 5.2 | 7.8 | 0.00 | 0.00 | 0.00 | 67 | 1029.6 |
| 20260510040012 | 56 | 93 | 3.5 | 7.8 | 0.00 | 0.00 | 0.00 | 66 | 1029.6 |
| 20260510035503 | 56 | 92 | 3.5 | 8.7 | 0.00 | 0.00 | 0.00 | 68 | 1029.6 |
| 20260510035003 | 56 | 95 | 4.3 | 8.7 | 0.00 | 0.00 | 0.00 | 67 | 1029.7 |
| 20260510034509 | 56 | 81 | 3.5 | 8.7 | 0.00 | 0.00 | 0.00 | 66 | 1029.6 |
| 20260510034003 | 56 | 93 | 5.2 | 8.7 | 0.00 | 0.00 | 0.00 | 65 | 1029.6 |
| 20260510033506 | 56 | 97 | 3.5 | 7.8 | 0.00 | 0.00 | 0.00 | 64 | 1029.5 |
| 20260510033012 | 56 | 77 | 2.6 | 7.0 | 0.00 | 0.00 | 0.00 | 66 | 1029.6 |
| 20260510032504 | 56 | 97 | 3.5 | 7.8 | 0.00 | 0.00 | 0.00 | 66 | 1029.5 |
| 20260510032007 | 56 | 130 | 0.9 | 8.7 | 0.00 | 0.00 | 0.00 | 67 | 1029.6 |
| 20260510031514 | 56 | 114 | 1.7 | 8.7 | 0.00 | 0.00 | 0.00 | 68 | 1029.6 |
| 20260510031008 | 56 | 80 | 2.6 | 7.8 | 0.00 | 0.00 | 0.00 | 67 | 1029.6 |
| 20260510030507 | 56 | 81 | 2.6 | 7.0 | 0.00 | 0.00 | 0.00 | 69 | 1029.6 |
| 20260510030011 | 56 | 135 | 2.6 | 7.8 | 0.00 | 0.00 | 0.00 | 70 | 1029.6 |
| 20260510025506 | 55 | 93 | 3.5 | 7.8 | 0.00 | 0.00 | 0.00 | 69 | 1029.5 |
| 20260510025005 | 56 | 84 | 2.6 | 0.0 | 0.00 | 0.00 | 0.00 | 68 | 1029.5 |
| 20260510024516 | 55 | 2.6 | 4.3 | 0.00 | 0.00 | 0.00 | 70 | 1029.5 | |
| 20260510024005 | 55 | 85 | 2.6 | 7.0 | 0.00 | 0.00 | 0.00 | 70 | 1029.5 |
| 20260510023505 | 55 | 71 | 2.6 | 7.0 | 0.00 | 0.00 | 0.00 | 70 | 1029.6 |
| 20260510023008 | 55 | 70 | 2.6 | 7.0 | 0.00 | 0.00 | 0.00 | 69 | 1029.6 |
| 20260510022508 | 55 | 89 | 3.5 | 7.0 | 0.00 | 0.00 | 0.00 | 71 | 1029.7 |
| 20260510022010 | 56 | 82 | 1.7 | 7.0 | 0.00 | 0.00 | 0.00 | 71 | 1029.8 |
| 20260510021515 | 56 | 101 | 3.5 | 7.0 | 0.00 | 0.00 | 0.00 | 69 | 1029.9 |
| 20260510021007 | 57 | 156 | 3.5 | 7.0 | 0.00 | 0.00 | 0.00 | 67 | 1030.0 |
| 20260510020507 | 57 | 104 | 1.7 | 5.2 | 0.00 | 0.00 | 0.00 | 68 | 1030.0 |
| 20260510020014 | 56 | 94 | 0.9 | 3.5 | 0.00 | 0.00 | 0.00 | 62 | 1030.0 |
| 20260510015509 | 56 | 244 | 0.9 | 3.5 | 0.00 | 0.00 | 0.00 | 61 | 1030.1 |
| 20260510015004 | 56 | 253 | 0.0 | 1.7 | 0.00 | 0.00 | 0.00 | 62 | 1030.1 |
| 20260510014513 | 55 | 162 | 0.0 | 0.0 | 0.00 | 0.00 | 0.00 | 61 | 1030.1 |
| 20260510014006 | 54 | 163 | 0.0 | 1.7 | 0.00 | 0.00 | 0.00 | 64 | 1030.2 |
| 20260510013508 | 54 | 24 | 0.0 | 3.5 | 0.00 | 0.00 | 0.00 | 67 | 1030.3 |
| 20260510013015 | 53 | 60 | 0.9 | 3.5 | 0.00 | 0.00 | 0.00 | 68 | 1030.4 |
| 20260510012505 | 53 | 60 | 1.7 | 5.2 | 0.00 | 0.00 | 0.00 | 72 | 1030.4 |
| 20260510012006 | 53 | 101 | 0.9 | 5.2 | 0.00 | 0.00 | 0.00 | 74 | 1030.6 |
| 20260510011512 | 52 | 87 | 2.6 | 6.1 | 0.00 | 0.00 | 0.00 | 74 | 1030.6 |
| 20260510011008 | 52 | 87 | 1.7 | 7.0 | 0.00 | 0.00 | 0.00 | 73 | 1030.6 |
| 20260510010506 | 52 | 94 | 2.6 | 5.2 | 0.00 | 0.00 | 0.00 | 73 | 1030.6 |
| 20260510010018 | 53 | 89 | 3.5 | 6.1 | 0.00 | 0.00 | 0.00 | 74 | 1030.6 |
| 20260510005509 | 52 | 104 | 2.6 | 6.1 | 0.00 | 0.00 | 0.00 | 74 | 1030.7 |
| 20260510005008 | 52 | 122 | 1.7 | 7.0 | 0.00 | 0.00 | 0.00 | 75 | 1030.7 |
| 20260510004514 | 53 | 77 | 1.7 | 6.1 | 0.00 | 0.00 | 0.00 | 76 | 1030.7 |
| 20260510004005 | 53 | 97 | 1.7 | 5.2 | 0.00 | 0.00 | 0.00 | 74 | 1030.7 |
| 20260510003508 | 53 | 83 | 1.7 | 6.1 | 0.00 | 0.00 | 0.00 | 72 | 1030.6 |
| 20260510003023 | 53 | 91 | 1.7 | 6.1 | 0.00 | 0.00 | 0.00 | 73 | 1030.6 |
| 20260510002509 | 53 | 88 | 2.6 | 3.5 | 0.00 | 0.00 | 0.00 | 72 | 1030.6 |
| 20260510002010 | 53 | 93 | 1.7 | 3.5 | 0.00 | 0.00 | 0.00 | 72 | 1030.6 |
| 20260510001518 | 53 | 101 | 1.7 | 3.5 | 0.00 | 0.00 | 0.00 | 72 | 1030.6 |
| 20260510001009 | 53 | 94 | 0.9 | 3.5 | 0.00 | 0.00 | 0.00 | 70 | 1030.6 |
| 20260510000507 | 53 | 72 | 0.9 | 3.5 | 0.00 | 0.00 | 0.00 | 69 | 1030.6 |
| 20260510000013 | 53 | 79 | 1.7 | 3.5 | 0.00 | 0.00 | 0.00 | 68 | 1030.6 |
| 20260509235510 | 53 | 69 | 0.9 | 3.5 | 0.00 | 0.00 | 0.00 | 68 | 1030.5 |
| 20260509235007 | 54 | 91 | 1.7 | 2.6 | 0.00 | 0.00 | 0.00 | 67 | 1030.5 |
| 20260509234521 | 54 | 80 | 0.9 | 2.6 | 0.00 | 0.00 | 0.00 | 64 | 1030.5 |
| 20260509234007 | 54 | 70 | 0.9 | 2.6 | 0.00 | 0.00 | 0.00 | 63 | 1030.4 |
| 20260509233507 | 54 | 64 | 0.0 | 1.7 | 0.00 | 0.00 | 0.00 | 62 | 1030.4 |
| 20260509233024 | 53 | 29 | 0.0 | 2.6 | 0.00 | 0.00 | 0.00 | 59 | 1030.4 |
| 20260509232510 | 53 | 27 | 0.0 | 2.6 | 0.00 | 0.00 | 0.00 | 59 | 1030.3 |
| 20260509232006 | 52 | 27 | 0.0 | 2.6 | 0.00 | 0.00 | 0.00 | 63 | 1030.2 |
| 20260509231521 | 52 | 27 | 0.9 | 2.6 | 0.00 | 0.00 | 0.00 | 62 | 1030.2 |
| 20260509231006 | 52 | 45 | 0.0 | 1.7 | 0.00 | 0.00 | 0.00 | 62 | 1030.3 |
| 20260509230507 | 51 | 23 | 0.0 | 2.6 | 0.00 | 0.00 | 0.00 | 63 | 1030.3 |
| 20260509230022 | 51 | 26 | 0.0 | 2.6 | 0.00 | 0.00 | 0.00 | 65 | 1030.2 |
| 20260509225507 | 50 | 31 | 0.9 | 1.7 | 0.00 | 0.00 | 0.00 | 65 | 1030.3 |
| 20260509225009 | 50 | 36 | 0.0 | 1.7 | 0.00 | 0.00 | 0.00 | 66 | 1030.3 |
| 20260509224513 | 49 | 37 | 0.0 | 1.7 | 0.00 | 0.00 | 0.00 | 65 | 1030.2 |
| 20260509224008 | 49 | 31 | 0.0 | 1.7 | 0.00 | 0.00 | 0.00 | 66 | 1030.3 |
| 20260509223505 | 48 | 30 | 0.9 | 1.7 | 0.00 | 0.00 | 0.00 | 67 | 1030.3 |
| 20260509223016 | 48 | 34 | 0.0 | 1.7 | 0.00 | 0.00 | 0.00 | 66 | 1030.2 |
| 20260509222505 | 47 | 18 | 0.0 | 2.6 | 0.00 | 0.00 | 0.00 | 67 | 1030.1 |
| 20260509222004 | 47 | 17 | 0.0 | 3.5 | 0.00 | 0.00 | 0.00 | 68 | 1030.0 |
| 20260509221517 | 47 | 15 | 0.9 | 3.5 | 0.00 | 0.00 | 0.00 | 68 | 1030.0 |
| 20260509221013 | 47 | 13 | 1.7 | 3.5 | 0.00 | 0.00 | 0.00 | 67 | 1030.0 |
| 20260509220508 | 47 | 32 | 1.7 | 3.5 | 0.00 | 0.00 | 0.00 | 68 | 1029.8 |
| 20260509220011 | 47 | 349 | 0.0 | 1.7 | 0.00 | 0.00 | 0.00 | 68 | 1029.5 |
| 20260509215507 | 46 | 330 | 0.0 | 2.6 | 0.00 | 0.00 | 0.00 | 70 | 1029.5 |
| 20260509215007 | 45 | 330 | 0.0 | 2.6 | 0.00 | 0.00 | 0.00 | 69 | 1029.5 |
| 20260509214516 | 45 | 305 | 0.0 | 2.6 | 0.00 | 0.00 | 0.00 | 71 | 1029.4 |
| 20260509214006 | 44 | 334 | 0.0 | 0.0 | 0.00 | 0.00 | 0.00 | 72 | 1029.5 |
| 20260509213509 | 44 | 334 | 0.0 | 0.0 | 0.00 | 0.00 | 0.00 | 73 | 1029.2 |
| 20260509213017 | 43 | 334 | 0.0 | 0.0 | 0.00 | 0.00 | 0.00 | 73 | 1029.3 |
| 20260509212511 | 43 | 329 | 0.0 | 2.6 | 0.00 | 0.00 | 0.00 | 74 | 1029.2 |
| 20260509212010 | 43 | 329 | 0.0 | 2.6 | 0.00 | 0.00 | 0.00 | 74 | 1029.1 |
| 20260509211504 | 42 | 306 | 0.9 | 2.6 | 0.00 | 0.00 | 0.00 | 76 | 1029.1 |
| 20260509211006 | 42 | 330 | 0.0 | 1.7 | 0.00 | 0.00 | 0.00 | 77 | 1029.0 |
| 20260509210507 | 42 | 330 | 0.0 | 0.0 | 0.00 | 0.00 | 0.00 | 77 | 1029.0 |
| 20260509210008 | 42 | 330 | 0.0 | 1.7 | 0.00 | 0.00 | 0.00 | 76 | 1028.9 |
| 20260509205506 | 42 | 330 | 0.0 | 3.5 | 0.00 | 0.00 | 0.00 | 76 | 1028.9 |
| 20260509205008 | 42 | 330 | 0.9 | 3.5 | 0.00 | 0.00 | 0.00 | 77 | 1028.9 |
| 20260509204517 | 42 | 349 | 0.0 | 1.7 | 0.00 | 0.00 | 0.00 | 77 | 1028.8 |
| 20260509204009 | 42 | 349 | 0.0 | 3.5 | 0.00 | 0.00 | 0.00 | 78 | 1028.8 |
| 20260509203506 | 42 | 348 | 0.9 | 3.5 | 0.00 | 0.00 | 0.00 | 78 | 1028.8 |
| 20260509203023 | 42 | 341 | 0.0 | 1.7 | 0.00 | 0.00 | 0.00 | 78 | 1028.8 |
| 20260509202508 | 42 | 339 | 0.0 | 1.7 | 0.00 | 0.00 | 0.00 | 77 | 1028.7 |
| 20260509202013 | 42 | 343 | 0.0 | 0.9 | 0.00 | 0.00 | 0.00 | 77 | 1028.7 |
| 20260509201520 | 42 | 343 | 0.0 | 1.7 | 0.00 | 0.00 | 0.00 | 77 | 1028.7 |
| 20260509201011 | 43 | 343 | 0.0 | 2.6 | 0.00 | 0.00 | 0.00 | 76 | 1028.6 |
| 20260509200509 | 43 | 341 | 0.9 | 2.6 | 0.00 | 0.00 | 0.00 | 76 | 1028.6 |
| 20260509200018 | 43 | 329 | 0.0 | 1.7 | 0.00 | 0.00 | 0.00 | 76 | 1028.5 |
| 20260509195505 | 44 | 267 | 0.0 | 0.0 | 0.00 | 0.00 | 0.00 | 76 | 1028.4 |
| 20260509195005 | 44 | 261 | 0.0 | 0.0 | 0.00 | 0.00 | 0.00 | 76 | 1028.3 |
| 20260509194523 | 44 | 261 | 0.0 | 0.0 | 0.00 | 0.00 | 0.00 | 76 | 1028.2 |
| 20260509194008 | 44 | 261 | 0.0 | 0.0 | 0.00 | 0.00 | 0.00 | 76 | 1028.2 |
| 20260509193511 | 45 | 245 | 0.0 | 0.0 | 0.00 | 0.00 | 0.00 | 75 | 1028.2 |
| 20260509193025 | 45 | 245 | 0.0 | 0.0 | 0.00 | 0.00 | 0.00 | 75 | 1028.1 |
| 20260509192505 | 45 | 245 | 0.0 | 0.0 | 0.00 | 0.00 | 0.00 | 75 | 1028.0 |
| 20260509192009 | 45 | 248 | 0.0 | 0.0 | 0.00 | 0.00 | 0.00 | 74 | 1027.9 |
| 20260509191522 | 45 | 248 | 0.0 | 0.0 | 0.00 | 0.00 | 0.00 | 74 | 1027.9 |
| 20260509191011 | 45 | 248 | 0.0 | 0.0 | 0.00 | 0.00 | 0.00 | 74 | 1027.9 |
| 20260509190508 | 45 | 248 | 0.0 | 0.0 | 0.00 | 0.00 | 0.00 | 75 | 1027.8 |
| 20260509190022 | 45 | 248 | 0.0 | 0.0 | 0.00 | 0.00 | 0.00 | 75 | 1027.7 |
| 20260509185509 | 45 | 244 | 0.0 | 0.9 | 0.00 | 0.00 | 0.00 | 75 | 1027.6 |
| 20260509185014 | 45 | 244 | 0.0 | 1.7 | 0.00 | 0.00 | 0.00 | 75 | 1027.6 |
| 20260509184527 | 45 | 243 | 0.0 | 1.7 | 0.00 | 0.00 | 0.00 | 75 | 1027.6 |
| 20260509184006 | 45 | 260 | 0.0 | 0.0 | 0.00 | 0.00 | 0.00 | 73 | 1027.6 |
| 20260509183509 | 45 | 260 | 0.0 | 0.0 | 0.00 | 0.00 | 0.00 | 72 | 1027.6 |
| 20260509183022 | 46 | 260 | 0.0 | 0.0 | 0.00 | 0.00 | 0.00 | 72 | 1027.5 |
| 20260509182507 | 46 | 260 | 0.0 | 0.0 | 0.00 | 0.00 | 0.00 | 71 | 1027.5 |
| 20260509182013 | 46 | 257 | 0.0 | 0.0 | 0.00 | 0.00 | 0.00 | 71 | 1027.3 |
| 20260509181515 | 47 | 253 | 0.0 | 1.7 | 0.00 | 0.00 | 0.00 | 72 | 1027.3 |
| 20260509181007 | 46 | 243 | 0.0 | 2.6 | 0.00 | 0.00 | 0.00 | 72 | 1027.3 |
| 20260509180509 | 46 | 243 | 0.9 | 2.6 | 0.00 | 0.00 | 0.00 | 72 | 1027.2 |
| 20260509180019 | 46 | 250 | 0.0 | 0.0 | 0.00 | 0.00 | 0.00 | 72 | 1027.3 |
| 20260509175510 | 46 | 251 | 0.0 | 0.0 | 0.00 | 0.00 | 0.00 | 71 | 1027.3 |
| 20260509175009 | 46 | 251 | 0.0 | 0.0 | 0.00 | 0.00 | 0.00 | 72 | 1027.3 |
| 20260509174522 | 46 | 247 | 0.0 | 0.0 | 0.00 | 0.00 | 0.00 | 72 | 1027.3 |
| 20260509174013 | 46 | 248 | 0.0 | 0.0 | 0.00 | 0.00 | 0.00 | 72 | 1027.3 |
| 20260509173509 | 47 | 248 | 0.0 | 0.0 | 0.00 | 0.00 | 0.00 | 72 | 1027.4 |
| 20260509173022 | 47 | 248 | 0.0 | 2.6 | 0.00 | 0.00 | 0.00 | 71 | 1027.4 |
| 20260509172512 | 47 | 248 | 0.0 | 2.6 | 0.00 | 0.00 | 0.00 | 71 | 1027.4 |
| 20260509172008 | 47 | 248 | 0.9 | 2.6 | 0.00 | 0.00 | 0.00 | 72 | 1027.5 |
| 20260509171524 | 47 | 254 | 1.7 | 2.6 | 0.00 | 0.00 | 0.00 | 72 | 1027.5 |
| 20260509171007 | 47 | 262 | 0.9 | 2.6 | 0.00 | 0.00 | 0.00 | 72 | 1027.6 |
| 20260509170506 | 47 | 258 | 0.0 | 3.5 | 0.00 | 0.00 | 0.00 | 72 | 1027.5 |
| 20260509170018 | 48 | 264 | 0.9 | 5.2 | 0.00 | 0.00 | 0.00 | 71 | 1027.6 |
| 20260509165506 | 47 | 266 | 1.7 | 5.2 | 0.00 | 0.00 | 0.00 | 72 | 1027.4 |
| 20260509165006 | 47 | 289 | 1.7 | 5.2 | 0.00 | 0.00 | 0.00 | 73 | 1027.4 |